When you browse on this site, cookies collect data to enhance your experience and personalize the content and advertising you see.
Visit our Privacy Policy to learn more. By continuing to use the site, you agree to this use of cookies and data.
  • en France
  • Liste des pays
  • À 7 jours
  • Température de l'eau
  • Carte satellitaire
  • Carte météo
  • Widgets météo
  • user-avatar
    Se connecter

    Météo par heure à Berat

    Ce jour, 22 Avril, Lundi

    Heure Température Précipitation Vent Pression Humidité
    00:00 +13°C° 0 mm 1 m/s 748 mmHg 94%
    01:00 +12°C° 0 mm 1 m/s 748 mmHg 94%
    02:00 +12°C° 0 mm 1 m/s 748 mmHg 93%
    03:00 +12°C° 0 mm 1 m/s 747 mmHg 92%
    04:00 +12°C° 0 mm 1 m/s 747 mmHg 91%
    05:00 +13°C° 0 mm 1 m/s 747 mmHg 86%
    06:00 +14°C° 0 mm 1 m/s 747 mmHg 81%
    07:00 +15°C° 0 mm 2 m/s 747 mmHg 76%
    08:00 +16°C° 0.1 mm 2 m/s 746 mmHg 72%
    09:00 +17°C° 0.1 mm 2 m/s 746 mmHg 68%
    10:00 +18°C° 0.1 mm 2 m/s 746 mmHg 64%
    11:00 +19°C° 0 mm 2 m/s 746 mmHg 58%
    12:00 +21°C° 0 mm 2 m/s 746 mmHg 51%
    13:00 +22°C° 0 mm 3 m/s 746 mmHg 45%
    14:00 +22°C° 0 mm 3 m/s 745 mmHg 45%
    15:00 +22°C° 0 mm 3 m/s 745 mmHg 45%
    16:00 +22°C° 0 mm 3 m/s 744 mmHg 45%
    17:00 +21°C° 0.2 mm 2 m/s 744 mmHg 55%
    18:00 +19°C° 0.2 mm 2 m/s 744 mmHg 65%
    19:00 +17°C° 0.2 mm 2 m/s 744 mmHg 75%
    20:00 +16°C° 0.7 mm 2 m/s 744 mmHg 77%
    21:00 +16°C° 0.7 mm 2 m/s 744 mmHg 79%
    22:00 +14°C° 0.7 mm 3 m/s 744 mmHg 81%
    23:00 +14°C° 0 mm 3 m/s 744 mmHg 81%

    Demain, 23 Avril, Mardi

    Heure Température Précipitation Vent Pression Humidité
    00:00 +14°C° 0 mm 3 m/s 743 mmHg 81%
    01:00 +14°C° 0 mm 3 m/s 743 mmHg 80%
    02:00 +13°C° 0 mm 3 m/s 743 mmHg 80%
    03:00 +13°C° 0 mm 4 m/s 743 mmHg 79%
    04:00 +13°C° 0 mm 4 m/s 742 mmHg 79%
    05:00 +14°C° 0 mm 4 m/s 742 mmHg 75%
    06:00 +15°C° 0 mm 4 m/s 742 mmHg 71%
    07:00 +17°C° 0 mm 4 m/s 742 mmHg 67%
    08:00 +19°C° 0 mm 5 m/s 743 mmHg 58%
    09:00 +22°C° 0 mm 6 m/s 743 mmHg 49%
    10:00 +24°C° 0 mm 7 m/s 744 mmHg 40%
    11:00 +24°C° 0 mm 7 m/s 744 mmHg 42%
    12:00 +24°C° 0 mm 8 m/s 744 mmHg 43%
    13:00 +24°C° 0 mm 8 m/s 744 mmHg 44%
    14:00 +24°C° 0 mm 8 m/s 744 mmHg 47%
    15:00 +23°C° 0 mm 8 m/s 744 mmHg 49%
    16:00 +22°C° 0 mm 8 m/s 744 mmHg 51%
    17:00 +21°C° 0 mm 6 m/s 744 mmHg 53%
    18:00 +20°C° 0 mm 5 m/s 745 mmHg 55%
    19:00 +18°C° 0 mm 4 m/s 745 mmHg 58%
    20:00 +17°C° 0 mm 4 m/s 745 mmHg 60%
    21:00 +17°C° 0 mm 4 m/s 746 mmHg 62%
    22:00 +16°C° 0 mm 3 m/s 746 mmHg 65%
    23:00 +16°C° 0 mm 3 m/s 746 mmHg 65%

    Après-demain, 24 Avril, Mercredi

    Heure Température Précipitation Vent Pression Humidité
    00:00 +14°C° 0 mm 3 m/s 746 mmHg 65%
    01:00 +14°C° 0 mm 3 m/s 747 mmHg 66%
    02:00 +14°C° 0 mm 3 m/s 747 mmHg 65%
    03:00 +13°C° 0 mm 3 m/s 747 mmHg 64%
    04:00 +13°C° 0 mm 3 m/s 747 mmHg 64%
    05:00 +16°C° 0 mm 3 m/s 747 mmHg 63%
    06:00 +17°C° 0 mm 2 m/s 747 mmHg 61%
    07:00 +19°C° 0 mm 2 m/s 747 mmHg 60%
    08:00 +21°C° 0 mm 2 m/s 748 mmHg 52%
    09:00 +24°C° 0 mm 2 m/s 748 mmHg 45%
    10:00 +27°C° 0 mm 2 m/s 748 mmHg 38%
    11:00 +27°C° 0 mm 3 m/s 748 mmHg 37%
    12:00 +28°C° 0 mm 3 m/s 748 mmHg 36%
    13:00 +29°C° 0 mm 3 m/s 748 mmHg 36%
    14:00 +28°C° 0 mm 3 m/s 747 mmHg 38%
    15:00 +28°C° 0 mm 3 m/s 747 mmHg 41%
    16:00 +27°C° 0 mm 2 m/s 747 mmHg 44%
    17:00 +25°C° 0 mm 2 m/s 747 mmHg 52%
    18:00 +21°C° 0 mm 2 m/s 748 mmHg 60%
    19:00 +20°C° 0 mm 1 m/s 748 mmHg 68%
    20:00 +19°C° 0 mm 2 m/s 748 mmHg 67%
    21:00 +18°C° 0 mm 2 m/s 748 mmHg 67%
    22:00 +18°C° 0 mm 2 m/s 749 mmHg 66%
    23:00 +17°C° 0 mm 2 m/s 749 mmHg 63%

    25 Avril, Jeudi

    Heure Température Précipitation Vent Pression Humidité
    00:00 +17°C° 0 mm 2 m/s 748 mmHg 61%
    01:00 +17°C° 0 mm 2 m/s 748 mmHg 59%
    02:00 +17°C° 0 mm 2 m/s 748 mmHg 57%
    03:00 +17°C° 0 mm 2 m/s 748 mmHg 55%
    04:00 +16°C° 0 mm 3 m/s 748 mmHg 53%
    05:00 +18°C° 0 mm 3 m/s 748 mmHg 53%
    06:00 +19°C° 0 mm 2 m/s 748 mmHg 54%
    07:00 +20°C° 0 mm 2 m/s 748 mmHg 54%
    08:00 +22°C° 0 mm 3 m/s 748 mmHg 48%
    09:00 +26°C° 0 mm 3 m/s 749 mmHg 42%
    10:00 +28°C° 0 mm 3 m/s 749 mmHg 36%
    11:00 +28°C° 0.1 mm 3 m/s 748 mmHg 37%
    12:00 +28°C° 0.1 mm 2 m/s 748 mmHg 38%
    13:00 +28°C° 0.1 mm 2 m/s 748 mmHg 39%
    14:00 +28°C° 0 mm 1 m/s 748 mmHg 41%
    15:00 +27°C° 0 mm 1 m/s 747 mmHg 44%
    16:00 +27°C° 0 mm 1 m/s 747 mmHg 46%
    17:00 +25°C° 0 mm 1 m/s 747 mmHg 53%
    18:00 +23°C° 0 mm 1 m/s 747 mmHg 60%
    19:00 +21°C° 0 mm 1 m/s 747 mmHg 67%
    20:00 +20°C° 0.2 mm 2 m/s 748 mmHg 68%
    21:00 +19°C° 0.2 mm 2 m/s 748 mmHg 68%
    22:00 +19°C° 0.2 mm 2 m/s 748 mmHg 68%
    23:00 +20°C° 0.2 mm 1 m/s 748 mmHg 67%

    26 Avril, Vendredi

    Heure Température Précipitation Vent Pression Humidité
    00:00 +19°C° 0.2 mm 1 m/s 747 mmHg 66%
    01:00 +19°C° 0.2 mm 1 m/s 747 mmHg 64%
    02:00 +19°C° 0 mm 1 m/s 747 mmHg 64%
    03:00 +17°C° 0 mm 2 m/s 747 mmHg 63%
    04:00 +16°C° 0 mm 2 m/s 747 mmHg 62%
    05:00 +18°C° 0 mm 2 m/s 747 mmHg 60%
    06:00 +20°C° 0 mm 1 m/s 747 mmHg 57%
    07:00 +22°C° 0 mm 1 m/s 747 mmHg 55%
    08:00 +23°C° 0 mm 1 m/s 747 mmHg 51%
    09:00 +25°C° 0 mm 1 m/s 747 mmHg 46%
    10:00 +27°C° 0 mm 1 m/s 747 mmHg 42%
    11:00 +27°C° 0 mm 2 m/s 746 mmHg 42%
    12:00 +28°C° 0 mm 2 m/s 746 mmHg 43%
    13:00 +28°C° 0 mm 3 m/s 746 mmHg 43%
    14:00 +28°C° 0 mm 3 m/s 745 mmHg 46%
    15:00 +27°C° 0 mm 2 m/s 745 mmHg 50%
    16:00 +26°C° 0 mm 2 m/s 744 mmHg 53%
    17:00 +24°C° 0 mm 2 m/s 744 mmHg 61%
    18:00 +22°C° 0 mm 1 m/s 744 mmHg 70%
    19:00 +20°C° 0 mm 1 m/s 744 mmHg 78%
    20:00 +20°C° 0 mm 1 m/s 744 mmHg 79%
    21:00 +19°C° 0 mm 1 m/s 744 mmHg 80%
    22:00 +19°C° 0 mm 1 m/s 745 mmHg 82%
    23:00 +19°C° 0 mm 1 m/s 744 mmHg 82%

    27 Avril, Samedi

    Heure Température Précipitation Vent Pression Humidité
    00:00 +18°C° 0 mm 1 m/s 744 mmHg 82%
    01:00 +16°C° 0 mm 0 m/s 744 mmHg 83%
    02:00 +16°C° 0 mm 0 m/s 744 mmHg 84%
    03:00 +15°C° 0 mm 0 m/s 744 mmHg 86%
    04:00 +15°C° 0 mm 0 m/s 744 mmHg 87%
    05:00 +16°C° 0 mm 1 m/s 744 mmHg 83%
    06:00 +18°C° 0 mm 1 m/s 744 mmHg 78%
    07:00 +18°C° 0 mm 2 m/s 744 mmHg 74%
    08:00 +19°C° 0 mm 2 m/s 744 mmHg 70%
    09:00 +20°C° 0 mm 2 m/s 744 mmHg 65%
    10:00 +21°C° 0 mm 3 m/s 744 mmHg 61%
    11:00 +20°C° 0 mm 3 m/s 743 mmHg 64%
    12:00 +20°C° 0 mm 4 m/s 743 mmHg 66%
    13:00 +19°C° 0 mm 4 m/s 743 mmHg 68%
    14:00 +19°C° 0 mm 4 m/s 743 mmHg 68%
    15:00 +17°C° 0 mm 5 m/s 743 mmHg 68%
    16:00 +16°C° 0 mm 5 m/s 743 mmHg 67%
    17:00 +15°C° 0 mm 4 m/s 743 mmHg 73%
    18:00 +14°C° 0 mm 3 m/s 743 mmHg 78%
    19:00 +13°C° 0 mm 2 m/s 743 mmHg 83%
    20:00 +13°C° 0 mm 1 m/s 744 mmHg 86%
    21:00 +12°C° 0 mm 1 m/s 744 mmHg 89%
    22:00 +11°C° 0 mm 1 m/s 744 mmHg 92%
    23:00 +11°C° 0 mm 1 m/s 744 mmHg 92%
    Voir plus